Regional Weather Roundup
Issued by NWS

Home | Current Version | Previous Version | Text Only | Print | Product List | Glossary On
Versions: 1 2 3 4 5 6 7 8 9 10 11 12 13 14 15 16 17 18 19 20 21 22 23 24 25 26 27
000
ASUS42 KTBW 261617
RWRFL
FLORIDA REGIONAL WEATHER ROUNDUP
NATIONAL WEATHER SERVICE TAMPA BAY RUSKIN FL
1200 PM EDT SUN MAR 26 2017

NOTE: "FAIR" INDICATES FEW OR NO CLOUDS BELOW 12,000 FEET WITH NO
SIGNIFICANT WEATHER AND/OR OBSTRUCTIONS TO VISIBILITY.

FLZ001>010-012>015-112-114-115-261700-
PANHANDLE FLORIDA

CITY           SKY/WX    TMP DP  RH WIND       PRES   REMARKS
PENSACOLA      PTSUNNY   78  67  68 S14       30.11R
PENSACOLA NAS  MOSUNNY   75  67  76 SE9       30.11R
CRESTVIEW      PTSUNNY   73  65  75 VRB7      30.13S
DUKE FIELD     LGT RAIN  73  66  78 S14       30.11S
VALPARAISO     PTSUNNY   72  66  80 SE14      30.12R
MARY ESTHER    CLOUDY    71  67  86 SE10      30.11R
PANAMA CITY    FAIR      74  63  68 SE15      30.12S
TYNDALL AFB    SUNNY     76  59  55 S16       30.13R
APALACHICOLA   MOSUNNY   73  67  81 SE10      30.14R

STATION/POSITION SKY/WX   TEMP    WIND        PRES    WAVE   SWELL
                          AIR SEA DIR/SP/G            HT/PER HT/PER
                          (F)     (DEG/KT/KT) (MB)    (FT/S) (FT/S)
30.1N   87.6W              70 70  110/  6/  6 1019.3R   4/ 7   3/ 7
29.2N   88.2W              73 73  170/  6/  8 1019.0R   4/ 8   3/ 8
28.8N   86.0W              72 71              1019.8R   3/ 7   2/ 7
PANAMA CITY BEAC           69 70  140/ 11/ 13 1020.5R
TOWER C                    68     150/ 11/ 12 1021.2R
28.5N   84.5W              70 69  150/  8/ 10 1020.2R   2/ 7   2/ 7

$$
FLZ011-016>038-118-127-128-134-139-239-261700-
NORTH FLORIDA

CITY           SKY/WX    TMP DP  RH WIND       PRES   REMARKS
MARIANNA       SUNNY     78  58  49 S12       30.12R
TALLAHASSEE    PTSUNNY   76  63  64 S9        30.15R
PERRY          PTSUNNY   79  60  53 S13       30.17R
CROSS CITY     MOSUNNY   79  61  53 SW10      30.16S
LAKE CITY      FAIR      77  59  53 S5        30.17S
GAINESVILLE    MOSUNNY   78  60  53 VRB6      30.17S
WILLISTON      SUNNY     81  59  47 CALM      30.16F
PALATKA        FAIR      77  59  53 CALM      30.18S
MAYPORT NAS    SUNNY     75  61  61 E10       30.18S
JACKSONVILLE   MOSUNNY   78  58  49 S10       30.17S
JAX NAS        MOSUNNY   75  57  53 S10       30.18F
FERNANDINA BEA FAIR      77  61  57 SE5       30.17S
ST AUGUSTINE   MOSUNNY   77  60  55 E10       30.19S

STATION/POSITION SKY/WX   TEMP    WIND        PRES    WAVE   SWELL
                          AIR SEA DIR/SP/G            HT/PER HT/PER
                          (F)     (DEG/KT/KT) (MB)    (FT/S) (FT/S)
SHELL POINT      NOT AVBL
KEATON BEACH               71     170/ 11/ 12 1021.2R
CEDAR KEY                  69     150/  8/  8 1021.8R
FERNANDINA                 75 66  140/  6/  9 1022.8S
30.7N   81.3W                 65                N/A     3/ 9   2/11
MAYPORT                    72 67   80/  9/ 10 1022.3F
31.4N   80.9W              66 64  210/  2/  4 1022.6R   4/10   3/10
ST AUGUSTINE               69 68   70/  7/  7 1023.0R

$$
FLZ040-043>046-052-053-057-058-063-144-261700-
INTERIOR CENTRAL FLORIDA

CITY           SKY/WX    TMP DP  RH WIND       PRES   REMARKS
OCALA          MOSUNNY   77  59  53 S6        30.17S
THE VILLAGES     N/A     79  63  57 MISG      30.07S
LEESBURG       SUNNY     77  60  55 S8        30.17S
SANFORD        CLOUDY    78  57  48 E9        30.16S
ORLANDO EXEC   PTSUNNY   77  56  48 SW3       30.16S
ORLANDO INTL   MOSUNNY   77  56  48 VRB7G16   30.16S
KISSIMMEE      PTSUNNY   78  62  57 SE7       30.17S
WINTER HAVEN   MOSUNNY   77  58  51 E7        30.17S
LAKELAND       MOSUNNY   77  61  57 SE7       30.16S
OKEECHOBEE     CLOUDY   N/A N/A N/A SE3       30.14F

$$
FLZ041-047-054-059-064-141-147-261700-
EAST CENTRAL FLORIDA

CITY           SKY/WX    TMP DP  RH WIND       PRES   REMARKS
ORMOND BEACH   MOSUNNY   77  59  53 E12       30.18R
DAYTONA BEACH  MOSUNNY   78  57  48 E9        30.17S
DELAND         PTSUNNY   77  57  50 E5        30.16F
NEW SMYRNA BEA MOSUNNY   77  59  53 E9        30.18S
JFK SPACE CTR  PTSUNNY   76  60  57 SE10G17   30.15S
TITUSVILLE     PTSUNNY   77  59  53 E9        30.17S
CAPE CANAVERAL SUNNY     81  59  47 E9        30.15S
PATRICK AFB    SUNNY     77  64  63 E8        30.16R
MELBOURNE      MOSUNNY   79  60  52 E10       30.16R
VERO BEACH     SUNNY     79  61  53 E13       30.15S
FT PIERCE      MOSUNNY   77  62  59 E14G22    30.14F

STATION/POSITION SKY/WX   TEMP    WIND        PRES    WAVE   SWELL
                          AIR SEA DIR/SP/G            HT/PER HT/PER
                          (F)     (DEG/KT/KT) (MB)    (FT/S) (FT/S)
TRIDENT PIER               77 71   90/  7/ 11 1022.7R
28.4N   80.5W                 71                N/A     3/ 8   2/11
27.5N   80.2W                 72                N/A     4/10   2/11

$$
FLZ050-056-061-142-242-148-248-149-249-151-251-155-255-
160-260-261700-
WEST CENTRAL FLORIDA

CITY           SKY/WX    TMP DP  RH WIND       PRES   REMARKS
CRYSTAL RIVER  FAIR      79  59  50 SE6       30.16S
INVERNESS      FAIR      79  61  53 S3        30.16F HAZE
BROOKSVILLE    MOSUNNY   80  58  46 S6        30.16S
CLEARWATER AIR FAIR      77  63  61 SE8       30.15S
ST PETE CLEARW SUNNY     79  61  53 SE12      30.14F
TAMPA INTL     MOSUNNY   78  61  55 E9        30.15F
TAMPA EXEC     MOSUNNY   81  61  50 CALM      30.15F
PLANT CITY     MOSUNNY   81  61  50 E7        30.17S
MACDILL AFB    MOSUNNY   80  65  59 S8        30.14F
PETER O KNIGHT MOSUNNY   81  64  57 S6        30.15F
ST PETERSBURG  SUNNY     75  65  70 E5        30.13F
SARASOTA       MOSUNNY   79  62  56 E9        30.12F
VENICE         FAIR      79  64  61 SE12G17   30.14S

STATION/POSITION SKY/WX   TEMP    WIND        PRES    WAVE   SWELL
                          AIR SEA DIR/SP/G            HT/PER HT/PER
                          (F)     (DEG/KT/KT) (MB)    (FT/S) (FT/S)
27.3N   84.2W                 71                N/A     2/ 5
CLEARWATER BEACH NOT AVBL
MIDDLE TAMPA BAY           75     160/  7/  9 1020.9F
VENICE                     76 69  110/  8/ 11 1020.0F

$$
FLZ066-069-070-075>078-162-262-165-265-261700-
SOUTHWEST FLORIDA AND KEYS

CITY           SKY/WX    TMP DP  RH WIND       PRES   REMARKS
PUNTA GORDA    PTSUNNY   78  61  55 SE9       30.15S
FT MYERS       PTSUNNY   81  62  52 SE13      30.12F
SOUTHWEST INTL MOSUNNY   79  61  53 E15       30.13S
NAPLES         MOSUNNY   79  63  57 E9G16     30.12S
MARATHON       SUNNY     83  66  56 E10       30.10S
KEY WEST NAS   MOSUNNY   81  64  56 E16       30.09S
KEY WEST INTL  SUNNY     80  66  62 E13       30.10S

STATION/POSITION SKY/WX   TEMP    WIND        PRES    WAVE   SWELL
                          AIR SEA DIR/SP/G            HT/PER HT/PER
                          (F)     (DEG/KT/KT) (MB)    (FT/S) (FT/S)
NAPLES                        72              1019.9F
26.0N   85.6W              75 77  100/ 14/ 17 1019.3R   4/ 8   3/ 8
DRY TORTUGAS               73      80/ 14/ 15 1019.3R
SAND KEY                   77     100/ 16/ 18 1019.5R
LONG KEY                   75 74  130/  8/  9 1019.8S
MOLASSES REEF              75 77  100/ 12/ 14 1019.9R

$$
FLZ067-068-071>074-168-172>174-261700-
SOUTHEAST FLORIDA

CITY           SKY/WX    TMP DP  RH WIND       PRES   REMARKS
W PALM BEACH   PTSUNNY   76  60  57 E14       30.15S
BOCA RATON     MOSUNNY   77  64  65 E13G21    30.14S
FT LAUDER-EXEC CLOUDY    78  63  59 E15       30.13S
FT LAUDERDALE  CLOUDY    78  63  59 E13G21    30.12R
POMPANO BEACH  PTSUNNY   77  65  66 E12       30.13S
PEMBROKE PINES CLOUDY    79  62  56 E12       30.14S
OPA LOCKA      CLOUDY    79  62  56 E15       30.13S
MIAMI          PTSUNNY   78  62  57 E12       30.12S
WEST KENDALL   CLOUDY    80  61  52 E13       30.12S
HOMESTEAD      LGT RAIN  73  69  86 NE6       30.12R

STATION/POSITION SKY/WX   TEMP    WIND        PRES    WAVE   SWELL
                          AIR SEA DIR/SP/G            HT/PER HT/PER
                          (F)     (DEG/KT/KT) (MB)    (FT/S) (FT/S)
PORT EVERGLADES            76      80/  9/ 14 1020.2
VIRGINIA KEY               75      90/  8/ 12 1020.6R
LAKE WORTH                         70/ 13/ 16   N/A
FOWEY ROCKS                74 76   80/ 14/ 15 1020.6R
SETTLEMENT POINT           71      70/ 15/ 17 1020.9F

$$





USA.gov is the U.S. government's official web portal to all federal, state and local government web resources and services.